Location: Coll
(42.4728°N, 0.7714°E)
Time: 07:30:59
(UTC+00:00)

Cosmos 1461 - Pass Details

Date: 23 October 2020
Orbit: 500 x 665 km, 65.0° (Epoch: 23 November)

Event Time Altitude Azimuth Distance (km) Brightness Sun altitude
Rises 05:01:46 0° 193° (SSW) 2,823 6.3 -15.0°
Reaches altitude 10° 05:04:02 10° 186° (S) 1,953 5.6 -14.6°
Maximum altitude 05:08:13 42° 116° (ESE) 905 4.4 -13.8°
Drops below altitude 10° 05:12:35 10° 46° (NE) 2,052 6.3 -13.0°
Sets 05:15:02 0° 40° (NE) 2,984 7.1 -12.6°
